Starlink 32040

operational
NORAD ID: 60109 Int'l Des: 2024-117 Owner: SPXS Country: US Constellation: starlink
LEOCIRCULAR

About Starlink 32040

Description loading...

Live Position

Loading 3D Globe...

Upcoming Passes

Altitude History

Altitude vs Time

uPlot chart will show altitude changes over time

Two-Line Element Set

1 60109U 24117U 25350.49270387 .00000550 00000-0 30705-4 0 9995
2 60109 53.1598 63.2132 0000985 77.8484 282.2627 15.30194076 84159
Epoch: Dec 16, 2025 • Age: 25 hours

Current Status

Altitude 494.2 km
Velocity 7.62 km/s
Sub-Earth Point -52.57°S, 41.66°E
Launch Date Jun 23, 2024
Age 1.4 years
Type internet

Technical Details

Classification Payload
Mass 730.00 kg
Dry Mass 700.00 kg
Total Mass 730.00 kg
Length 0.30 m
Diameter 4.10 m
Span 29.00 m
Shape Box + pan
Manufacturer SPXS
Bus Type Starlink V2M
Phase Status In Orbit
Owner/State SPXS/US

Large Constellations

Loading constellations...